RH
50 49 48 49 49 50 52 55 56 56 57 57 57 57 57 57 57 57 57 57 57 57 57 57 57 56 56 56 56 56 56 56 56 56 57 56 56 56 56 55 57 58
51 50 49 49 49 49 49 51 53 54 54 55 55 54 55 55 56 58 58 59 59 59 59 60 60 60 59 59 59 58 58 57 57 56 56 55 55 54 53 53 54 54
56 54 53 52 54 55 54 54 54 54 54 54 53 52 52 53 53 55 57 59 60 61 61 61 62 62 62 63 63 63 63 63 63 64 63 62 61 59 58 57 57 56
67 65 62 61 62 62 62 61 60 59 59 57 55 54 53 53 53 54 55 56 58 60 62 63 64 64 65 66 67 67 67 68 69 71 71 69 69 68 66 65 63 62
75 74 73 73 74 73 72 72 70 68 67 66 64 61 59 58 57 57 57 57 58 60 61 63 65 66 67 68 68 69 70 71 72 74 74 73 74 74 73 72 71 69
81 80 80 80 81 82 82 82 82 80 79 78 76 73 70 68 67 65 65 64 64 65 66 67 68 69 71 72 72 73 73 74 75 77 77 76 77 77 76 76 76 75
82 83 84 85 85 86 87 87 87 86 86 86 85 83 81 79 78 76 75 75 75 75 75 74 74 74 75 76 77 78 78 79 79 81 80 79 79 79 78 79 79 80
74 77 80 82 85 87 89 90 90 89 89 88 87 87 86 86 85 84 84 83 83 84 84 84 84 83 82 81 81 81 82 83 85 86 85 84 84 84 85 86 86 86
56 62 66 71 75 79 82 85 88 90 90 90 90 90 90 89 89 88 88 88 88 88 89 89 89 90 89 89 88 87 87 89 90 90 90 89 89 89 91 93 93 91
36 39 43 49 55 60 66 71 76 80 83 85 87 89 90 90 90 91 91 91 91 91 92 92 93 93 94 95 95 95 96 96 96 95 95 94 93 94 96 97 97 95
31 30 31 32 34 38 43 49 55 61 67 72 76 79 82 84 85 87 88 89 90 90 91 91 92 93 94 96 97 98 99 99 98 97 97 96 96 97 98 99 100 97
36 34 33 32 31 31 32 33 37 41 45 51 56 62 67 72 75 79 81 83 84 86 87 88 89 91 92 93 94 95 96 97 97 96 96 96 96 96 96 97 98 97
42 40 39 37 36 35 34 34 34 35 35 38 40 44 49 54 59 65 70 74 77 79 82 83 85 87 88 89 89 90 91 91 92 93 93 94 94 94 95 95 95 94
46 45 44 43 41 40 39 39 38 38 38 39 39 40 41 44 47 52 57 63 69 73 75 77 79 81 82 84 85 86 87 87 87 88 88 89 88 89 89 89 90 90
49 49 48 47 47 46 45 44 44 43 43 44 44 43 44 44 45 46 48 53 58 64 68 72 75 77 78 80 81 83 84 84 84 85 85 84 84 84 85 85 86 87
54 53 52 52 52 52 51 50 49 48 48 47 47 47 47 47 47 47 48 49 50 53 57 61 66 69 72 75 77 79 79 80 80 80 80 81 81 82 83 84 85 85
61 59 58 58 58 58 57 55 53 52 51 50 50 50 49 49 49 49 49 49 50 51 52 54 57 59 62 65 68 70 71 72 72 73 73 74 75 77 78 80 81 82
68 67 66 65 65 64 62 60 57 54 52 51 51 50 49 48 47 47 47 48 49 50 52 54 56 58 59 60 62 65 65 64 63 64 65 66 68 69 70 70 71 72
75 73 73 72 71 69 66 62 58 54 52 51 51 50 48 47 46 45 45 45 46 48 51 53 57 60 63 65 65 67 67 64 61 61 62 63 64 64 63 63 63 63
83 81 80 79 77 73 68 63 59 56 54 52 51 51 49 48 46 45 45 45 46 48 51 53 55 58 62 67 69 72 72 67 64 65 67 66 64 62 62 62 61 61
90 88 86 85 81 77 71 66 62 58 56 54 53 51 50 48 47 47 47 48 49 53 55 56 58 59 60 64 68 73 76 72 69 69 68 67 66 64 63 63 63 64
95 92 90 88 83 78 73 70 65 61 58 56 54 52 50 50 50 51 53 55 57 61 63 64 65 65 65 65 66 73 79 76 73 72 69 64 63 63 62 63 64 66
99 96 93 90 84 79 75 72 68 64 61 58 56 55 54 55 56 57 59 62 65 68 71 73 74 74 74 73 71 74 79 77 76 78 74 68 66 66 65 63 62 63
101 100 97 91 86 81 77 74 71 67 63 60 59 60 60 61 63 63 65 68 71 74 76 77 77 76 75 75 74 74 76 77 78 78 73 67 68 71 68 62 59 59
99 100 98 94 89 83 79 77 74 69 65 63 63 64 65 68 69 70 71 72 74 76 77 76 76 75 73 73 72 71 71 74 75 73 70 68 71 74 70 65 63 60
99 98 97 95 91 85 81 80 76 71 68 67 66 68 70 72 73 73 73 74 74 75 75 75 74 74 74 74 73 72 71 73 74 73 72 71 71 72 70 66 62 57